When you browse on this site, cookies collect data to enhance your experience and personalize the content and advertising you see.
Visit our Privacy Policy to learn more. By continuing to use the site, you agree to this use of cookies and data.
  • en Suisse
  • Liste des pays
  • À 7 jours
  • Température de l'eau
  • Carte météo
  • Widgets météo
  • user-avatar
    Se connecter

    Météo par heure à Knighton

    Ce jour, 10 Avril, Vendredi

    Heure Température Précipitation Vent Pression Humidité
    00:00 +9°C° 0 mm 1 m/s 739 mmHg 94%
    01:00 +8°C° 0 mm 1 m/s 738 mmHg 92%
    02:00 +8°C° 0 mm 1 m/s 738 mmHg 91%
    03:00 +7°C° 0 mm 1 m/s 737 mmHg 90%
    04:00 +7°C° 0 mm 1 m/s 737 mmHg 89%
    05:00 +7°C° 0 mm 1 m/s 737 mmHg 88%
    06:00 +7°C° 0 mm 1 m/s 738 mmHg 88%
    07:00 +8°C° 0 mm 1 m/s 738 mmHg 85%
    08:00 +10°C° 0 mm 1 m/s 738 mmHg 82%
    09:00 +12°C° 0 mm 1 m/s 738 mmHg 79%
    10:00 +13°C° 0 mm 2 m/s 738 mmHg 76%
    11:00 +15°C° 0 mm 2 m/s 738 mmHg 73%
    12:00 +17°C° 0 mm 2 m/s 738 mmHg 70%
    13:00 +18°C° 0.1 mm 3 m/s 738 mmHg 70%
    14:00 +18°C° 0.1 mm 3 m/s 737 mmHg 70%
    15:00 +19°C° 0.1 mm 3 m/s 737 mmHg 70%
    16:00 +18°C° 0.3 mm 3 m/s 737 mmHg 73%
    17:00 +17°C° 0.3 mm 2 m/s 737 mmHg 77%
    18:00 +16°C° 0.3 mm 2 m/s 737 mmHg 81%
    19:00 +15°C° 0 mm 2 m/s 737 mmHg 84%
    20:00 +13°C° 0 mm 1 m/s 737 mmHg 86%
    21:00 +12°C° 0 mm 1 m/s 737 mmHg 88%
    22:00 +11°C° 0 mm 1 m/s 737 mmHg 88%
    23:00 +10°C° 0 mm 1 m/s 737 mmHg 89%

    Demain, 11 Avril, Samedi

    Heure Température Précipitation Vent Pression Humidité
    00:00 +10°C° 0 mm 1 m/s 737 mmHg 89%
    01:00 +9°C° 0 mm 1 m/s 737 mmHg 89%
    02:00 +9°C° 0 mm 1 m/s 736 mmHg 89%
    03:00 +9°C° 0 mm 1 m/s 736 mmHg 90%
    04:00 +9°C° 0 mm 1 m/s 736 mmHg 89%
    05:00 +9°C° 0 mm 1 m/s 736 mmHg 89%
    06:00 +9°C° 0 mm 1 m/s 736 mmHg 88%
    07:00 +11°C° 0 mm 1 m/s 737 mmHg 84%
    08:00 +13°C° 0 mm 1 m/s 737 mmHg 80%
    09:00 +15°C° 0 mm 1 m/s 737 mmHg 75%
    10:00 +16°C° 0.1 mm 1 m/s 737 mmHg 71%
    11:00 +19°C° 0.1 mm 1 m/s 737 mmHg 66%
    12:00 +19°C° 0.1 mm 2 m/s 737 mmHg 61%
    13:00 +19°C° 0.1 mm 2 m/s 737 mmHg 61%
    14:00 +19°C° 0.1 mm 2 m/s 737 mmHg 61%
    15:00 +19°C° 0.1 mm 3 m/s 737 mmHg 61%
    16:00 +18°C° 0.1 mm 2 m/s 736 mmHg 68%
    17:00 +16°C° 0.1 mm 2 m/s 736 mmHg 75%
    18:00 +15°C° 0.1 mm 2 m/s 736 mmHg 82%
    19:00 +13°C° 0 mm 2 m/s 736 mmHg 86%
    20:00 +12°C° 0 mm 1 m/s 736 mmHg 89%
    21:00 +10°C° 0 mm 1 m/s 736 mmHg 93%
    22:00 +8°C° 0 mm 0 m/s 736 mmHg 93%
    23:00 +8°C° 0 mm 0 m/s 736 mmHg 94%

    Après-demain, 12 Avril, Dimanche

    Heure Température Précipitation Vent Pression Humidité
    00:00 +7°C° 0 mm 0 m/s 736 mmHg 94%
    01:00 +7°C° 0 mm 0 m/s 735 mmHg 94%
    02:00 +7°C° 0 mm 0 m/s 734 mmHg 94%
    03:00 +8°C° 0 mm 1 m/s 733 mmHg 94%
    04:00 +8°C° 0 mm 1 m/s 733 mmHg 94%
    05:00 +8°C° 0 mm 1 m/s 733 mmHg 94%
    06:00 +8°C° 0 mm 1 m/s 732 mmHg 94%
    07:00 +9°C° 0 mm 1 m/s 732 mmHg 90%
    08:00 +11°C° 0 mm 1 m/s 731 mmHg 86%
    09:00 +13°C° 0 mm 2 m/s 731 mmHg 82%
    10:00 +14°C° 0.1 mm 2 m/s 730 mmHg 78%
    11:00 +14°C° 0.1 mm 3 m/s 730 mmHg 74%
    12:00 +16°C° 0.1 mm 3 m/s 729 mmHg 70%
    13:00 +16°C° 0.4 mm 3 m/s 728 mmHg 71%
    14:00 +15°C° 0.4 mm 4 m/s 727 mmHg 71%
    15:00 +15°C° 0.4 mm 4 m/s 726 mmHg 72%
    16:00 +14°C° 0.5 mm 4 m/s 726 mmHg 76%
    17:00 +13°C° 0.5 mm 3 m/s 725 mmHg 80%
    18:00 +13°C° 0.5 mm 3 m/s 725 mmHg 85%
    19:00 +12°C° 0.4 mm 2 m/s 725 mmHg 87%
    20:00 +10°C° 0.4 mm 2 m/s 725 mmHg 88%
    21:00 +9°C° 0.4 mm 2 m/s 726 mmHg 90%
    22:00 +9°C° 0.4 mm 2 m/s 726 mmHg 92%
    23:00 +9°C° 0.4 mm 2 m/s 726 mmHg 94%

    13 Avril, Lundi

    Heure Température Précipitation Vent Pression Humidité
    00:00 +9°C° 0.4 mm 2 m/s 727 mmHg 96%
    01:00 +7°C° 0.2 mm 4 m/s 727 mmHg 96%
    02:00 +7°C° 0.2 mm 6 m/s 727 mmHg 96%
    03:00 +6°C° 0.2 mm 8 m/s 727 mmHg 96%
    04:00 +6°C° 0 mm 9 m/s 728 mmHg 94%
    05:00 +5°C° 0 mm 9 m/s 729 mmHg 93%
    06:00 +5°C° 0 mm 9 m/s 729 mmHg 91%
    07:00 +5°C° 0 mm 10 m/s 730 mmHg 89%
    08:00 +5°C° 0 mm 10 m/s 731 mmHg 87%
    09:00 +6°C° 0 mm 10 m/s 732 mmHg 85%
    10:00 +6°C° 0 mm 10 m/s 733 mmHg 83%
    11:00 +6°C° 0 mm 10 m/s 734 mmHg 81%
    12:00 +6°C° 0 mm 9 m/s 734 mmHg 78%
    13:00 +7°C° 0 mm 9 m/s 735 mmHg 75%
    14:00 +7°C° 0 mm 9 m/s 735 mmHg 72%
    15:00 +7°C° 0 mm 9 m/s 735 mmHg 68%
    16:00 +6°C° 0 mm 8 m/s 735 mmHg 68%
    17:00 +5°C° 0 mm 8 m/s 735 mmHg 68%
    18:00 +4°C° 0 mm 7 m/s 736 mmHg 68%
    19:00 +3°C° 0 mm 7 m/s 736 mmHg 73%
    20:00 +1°C° 0 mm 6 m/s 736 mmHg 77%
    21:00 -2°C° 0 mm 6 m/s 737 mmHg 81%
    22:00 -2°C° 0 mm 6 m/s 737 mmHg 85%
    23:00 -1°C° 0 mm 5 m/s 737 mmHg 89%

    14 Avril, Mardi

    Heure Température Précipitation Vent Pression Humidité
    00:00 -2°C° 0 mm 5 m/s 737 mmHg 93%
    01:00 -2°C° 0 mm 5 m/s 737 mmHg 93%
    02:00 -2°C° 0 mm 5 m/s 737 mmHg 94%
    03:00 -2°C° 0 mm 4 m/s 737 mmHg 94%
    04:00 -3°C° 0 mm 4 m/s 737 mmHg 95%
    05:00 -3°C° 0 mm 4 m/s 737 mmHg 95%
    06:00 -3°C° 0 mm 4 m/s 736 mmHg 96%
    07:00 -1°C° 0 mm 4 m/s 737 mmHg 88%
    08:00 0°C° 0 mm 5 m/s 737 mmHg 80%
    09:00 +2°C° 0 mm 6 m/s 737 mmHg 72%
    10:00 +4°C° 0 mm 6 m/s 737 mmHg 69%
    11:00 +5°C° 0 mm 6 m/s 736 mmHg 66%
    12:00 +6°C° 0 mm 7 m/s 736 mmHg 63%
    13:00 +8°C° 0 mm 7 m/s 736 mmHg 63%
    14:00 +8°C° 0 mm 7 m/s 735 mmHg 64%
    15:00 +9°C° 0 mm 6 m/s 735 mmHg 64%
    16:00 +8°C° 0 mm 6 m/s 734 mmHg 67%
    17:00 +7°C° 0 mm 6 m/s 734 mmHg 71%
    18:00 +6°C° 0 mm 5 m/s 734 mmHg 74%
    19:00 +3°C° 0 mm 5 m/s 734 mmHg 78%
    20:00 +1°C° 0 mm 5 m/s 734 mmHg 81%
    21:00 0°C° 0 mm 4 m/s 734 mmHg 85%
    22:00 -1°C° 0 mm 4 m/s 734 mmHg 88%
    23:00 -2°C° 0 mm 4 m/s 733 mmHg 92%

    15 Avril, Mercredi

    Heure Température Précipitation Vent Pression Humidité
    00:00 -2°C° 0 mm 3 m/s 733 mmHg 95%
    01:00 -2°C° 0 mm 3 m/s 733 mmHg 96%
    02:00 -3°C° 0 mm 4 m/s 732 mmHg 97%
    03:00 -3°C° 0 mm 4 m/s 732 mmHg 97%
    04:00 -2°C° 0 mm 4 m/s 732 mmHg 96%
    05:00 -2°C° 0 mm 4 m/s 731 mmHg 95%
    06:00 -1°C° 0 mm 4 m/s 731 mmHg 94%
    07:00 0°C° 0 mm 5 m/s 731 mmHg 89%
    08:00 +2°C° 0 mm 6 m/s 731 mmHg 83%
    09:00 +3°C° 0 mm 6 m/s 731 mmHg 78%
    10:00 +5°C° 0 mm 7 m/s 731 mmHg 73%
    11:00 +8°C° 0 mm 7 m/s 731 mmHg 68%
    12:00 +9°C° 0 mm 8 m/s 731 mmHg 63%
    13:00 +10°C° 0 mm 8 m/s 730 mmHg 63%
    14:00 +10°C° 0 mm 8 m/s 730 mmHg 63%
    15:00 +10°C° 0 mm 8 m/s 730 mmHg 62%
    16:00 +9°C° 0 mm 7 m/s 729 mmHg 66%
    17:00 +8°C° 0 mm 6 m/s 729 mmHg 70%
    18:00 +7°C° 0 mm 6 m/s 729 mmHg 74%
    19:00 +5°C° 0 mm 5 m/s 729 mmHg 75%
    20:00 +3°C° 0 mm 5 m/s 729 mmHg 76%
    21:00 +1°C° 0 mm 5 m/s 729 mmHg 77%
    22:00 0°C° 0 mm 4 m/s 729 mmHg 80%
    23:00 0°C° 0 mm 4 m/s 729 mmHg 83%
    Voir plus